Regional Weather Roundup
Issued by NWS Jackson, KY

Home | Current Version | Previous Version | Text Only | Print | Product List | Glossary On
Versions: 1 2 3 4 5 6 7 8 9 10 11 12 13 14 15 16 17 18 19 20 21 22 23 24 25
000
ASUS43 KJKL 181010
RWRJKL

EAST KENTUCKY HOURLY WEATHER ROUNDUP
NATIONAL WEATHER SERVICE JACKSON KY
500 AM EST SUN FEB 18 2018

NOTE: "FAIR" INDICATES FEW OR NO CLOUDS BELOW 12,000 FEET WITH
NO SIGNIFICANT WEATHER AND/OR OBSTRUCTIONS TO VISIBILITY.

* THESE REPORTS ARE NOT UNDER NWS QUALITY CONTROL AND MAY NOT
  REPORT WEATHER SUCH AS PRECIPITATION AND FOG.

KYZ079-080-083-085-087-088-110-112-115-119-120-181100
...EASTERN KENTUCKY...

CITY           SKY/WX    TMP DP  RH WIND       PRES   REMARKS
JACKSON          N/A     36  30  79 NW5       30.28R WCI  32
LONDON         MOCLDY    36  32  85 NW5       30.29R WCI  32
SOMERSET*        N/A     32  32 100 CALM      30.31R
WILLIAMSBURG*    N/A     36  36 100 CALM      30.29R
MIDDLESBORO*   CLOUDY    39  35  85 NE3       30.28R
HARLAN APT*      N/A     37  34  87 CALM      30.26S
PIKE CO APT*     N/A     37  34  91 NW5       30.27R WCI  33
BIG SANDY APT* CLOUDY    38  32  80 NW3       30.29R
MOREHEAD APT*  CLOUDY    36  32  87 W6        30.31R WCI  31
ASHLAND*       CLOUDY    37  33  85 CALM      30.31R
$$

KYZ035-036-041-042-044-050-067-078-099-181100
...CENTRAL KENTUCKY...

CITY           SKY/WX    TMP DP  RH WIND       PRES   REMARKS
MT STERLING*     N/A     34  32  93 CALM      30.31R
FLEMING/MASON*   N/A     32  32  99 W3        30.32R
DANVILLE*        N/A     32  30  93 CALM      30.31R
LEXINGTON        N/A     33  28  81 W3        30.30R
FRANKFORT        N/A     31  26  82 W3        30.29R
LOUISVILLE       N/A     33  30  88 CALM      30.31R
LEBANON*         N/A     32  30  93 CALM      30.31R
GLASGOW*         N/A    N/A N/A N/A CALM      30.31R
BOWLING GREEN    N/A     35  33  92 N3        30.32R
$$

KYZ091>093-OHZ055-061-077-WVZ005-015-034-035-042-181100
...SOUTHERN OHIO/WEST VIRGINIA...

CITY           SKY/WX    TMP DP  RH WIND       PRES   REMARKS
COVINGTON      CLOUDY    33  30  88 NW3       30.28R
COLUMBUS       CLOUDY    34  28  79 W10       30.27R WCI  26
DAYTON         CLOUDY    31  27  85 NW9       30.28R WCI  23
WILMINGTON     CLOUDY    32  28  85 N7        30.28R WCI  26
HUNTINGTON     CLOUDY    38  31  76 NW3       30.29R
CHARLESTON     CLOUDY    38  32  79 NW5       30.28R WCI  34
BECKLEY        LGT RAIN  35  32  88 NW9       30.19R WCI  28
BLUEFIELD      MOCLDY    35  29  78 NW13G20   30.17R WCI  26
LOGAN CO APT*  CLOUDY    37  32  81 NW5       30.26R WCI  34
$$

VAZ002-007-008-TNZ017-027-036-066-071-181100
...SOUTHWEST VIRGINIA/EAST TENNESSEE...

CITY           SKY/WX    TMP DP  RH WIND       PRES   REMARKS
WISE*          MOCLDY    36  36 100 NW6       30.23R WCI  31
JONESVILLE*      N/A     39  36  87 CALM      30.28R
ABINGDON*      CLOUDY    43  36  75 W6        30.22R
BRISTOL        MOCLDY    41  39  93 W7        30.24R
MORRISTOWN*    PTSUNNY   41  39  93 N5        30.25S
SEVIERVILLE*   PTSUNNY   43  41  93 CALM      30.26R
KNOXVILLE        N/A     40  39  97 NE6       30.25R FOG
OAK RIDGE        N/A     39  38  96 CALM      30.27R
CROSSVILLE       N/A     37  32  82 N6        30.25S WCI  32
NASHVILLE        N/A     36  33  89 NE7       30.31R WCI  30
$$

...KEY TO REMARKS...
VSB - VISIBILITY IN MILES
WCI - WIND CHILL INDEX
HX  - HEAT INDEX

$$




USA.gov is the U.S. government's official web portal to all federal, state and local government web resources and services.